Date,TemperatureHighF,TemperatureAvgF,TemperatureLowF,DewpointHighF,DewpointAvgF,DewpointLowF,HumidityHigh,HumidityAvg,HumidityLow,PressureMaxIn,PressureMinIn,WindSpeedMaxMPH,WindSpeedAvgMPH,GustSpeedMaxMPH,PrecipitationSumIn
2013-1-1,61,46,37,43,38,33,91,75,49,30.54,30.47,4,0,10,0.00
2013-1-2,69,48,34,44,36,30,87,66,33,30.51,30.40,4,0,6,0.00
2013-1-3,68,47,35,44,36,30,84,67,39,30.53,30.43,3,0,7,0.00
2013-1-4,71,50,38,47,39,33,84,68,38,30.56,30.44,2,0,5,0.00
2013-1-5,61,49,39,52,45,36,98,86,66,30.53,30.34,4,1,9,0.07
2013-1-6,51,46,40,49,45,39,99,96,86,30.47,30.32,4,0,8,0.06
2013-1-7,70,50,37,56,45,37,99,85,50,30.53,30.43,3,0,7,0.01
2013-1-8,73,54,43,57,47,42,99,79,46,30.51,30.40,2,0,6,0.00
2013-1-9,60,49,42,51,45,39,96,85,72,30.42,30.27,3,0,11,0.01
2013-1-10,60,47,38,42,38,33,91,71,47,30.47,30.34,5,1,12,0.00
2013-1-11,62,45,34,44,37,30,90,74,45,30.54,30.40,6,0,11,0.00
2013-1-12,63,45,35,41,32,25,92,64,25,30.53,30.41,6,0,9,0.00
2013-1-13,60,42,32,33,28,23,78,61,26,30.54,30.44,4,0,9,0.00
2013-1-14,61,44,32,27,24,18,64,48,25,30.67,30.50,4,0,8,0.00
2013-1-15,66,46,33,37,30,25,76,56,27,30.74,30.66,5,0,10,0.00
2013-1-16,70,48,34,42,34,28,82,62,29,30.71,30.52,4,0,6,0.00
2013-1-17,75,52,36,45,38,30,84,61,32,30.53,30.42,3,0,6,0.00
2013-1-18,75,54,39,46,39,33,81,61,32,30.50,30.40,4,0,9,0.00
2013-1-19,75,55,43,48,40,35,74,59,35,30.52,30.42,4,0,8,0.00
2013-1-20,75,55,42,45,38,33,71,56,28,30.50,30.40,9,0,6,66.68
2013-1-21,80,56,40,47,39,31,72,56,29,30.45,30.35,3,0,5,0.00
2013-1-22,75,55,40,48,39,31,73,57,35,30.38,30.27,3,0,6,0.00
2013-1-23,66,54,49,53,46,38,97,74,41,30.35,30.23,3,0,4,0.02
2013-1-24,57,54,51,56,53,51,99,97,88,30.46,30.33,1,0,4,0.17
2013-1-25,75,60,54,66,56,54,99,89,61,30.46,30.32,4,0,8,0.01
2013-1-26,68,54,43,55,47,38,99,80,45,30.37,30.28,4,0,9,0.00
2013-1-27,66,51,40,44,39,34,88,67,33,30.45,30.35,6,0,11,0.00
2013-1-28,66,50,42,48,41,37,89,72,44,30.58,30.44,5,0,10,0.00
2013-1-29,67,51,39,48,43,37,94,76,48,30.64,30.54,4,0,8,0.00
2013-1-30,80,59,46,49,43,38,84,61,32,30.62,30.53,4,0,8,0.00
2013-1-31,76,56,42,52,44,37,88,67,38,30.57,30.45,3,0,8,0.00
2013-2-1,82,58,44,54,46,39,88,68,37,30.49,30.38,3,0,7,0.00
2013-2-2,68,53,46,55,48,42,96,85,59,30.57,30.48,3,0,7,0.00
2013-2-3,70,54,42,50,46,40,95,77,46,30.53,30.41,3,0,8,0.00
2013-2-4,70,51,42,54,47,40,99,87,56,30.47,30.35,4,0,7,0.00
2013-2-5,65,52,42,50,46,39,95,83,57,30.44,30.36,4,0,8,0.00
2013-2-6,70,52,40,50,42,37,93,74,42,30.48,30.40,6,0,9,0.00
2013-2-7,64,48,39,52,41,36,94,79,43,30.47,30.31,4,0,8,0.03
2013-2-8,45,45,45,42,42,42,90,90,90,30.31,30.31,0,0,0,0.03
2013-2-9,45,45,45,42,42,42,90,90,90,30.31,30.31,0,0,0,0.03
2013-2-10,45,45,45,42,42,42,90,90,90,30.31,30.31,0,0,0,0.03
2013-2-11,45,45,45,42,42,42,90,90,90,30.31,30.31,0,0,0,0.03
2013-2-12,45,45,45,42,42,42,90,90,90,30.31,30.31,0,0,0,0.03
2013-2-13,45,45,45,42,42,42,90,90,90,30.31,30.31,0,0,0,0.03
2013-2-14,45,45,45,42,42,42,90,90,90,30.31,30.31,0,0,0,0.03
2013-2-15,45,45,45,42,42,42,90,90,90,30.31,30.31,0,0,0,0.03
2013-2-16,45,45,45,42,42,42,90,90,90,30.31,30.31,0,0,0,0.03
2013-2-17,45,45,45,42,42,42,90,90,90,30.31,30.31,0,0,0,0.03
2013-2-18,79,45,45,47,42,42,90,90,33,30.31,30.12,1,0,2,0.03
2013-3-1,84,65,53,52,49,46,79,60,32,30.66,30.62,4,0,8,0.00
2013-3-2,78,62,51,55,50,10,83,67,43,30.63,30.45,4,0,6,0.00
2013-3-3,75,58,50,55,49,45,91,74,40,30.50,30.41,4,0,8,0.00
2013-3-4,70,54,44,49,44,40,86,71,46,30.54,30.44,6,1,13,0.00
2013-3-5,66,54,45,46,43,41,88,69,43,30.47,30.26,10,2,21,0.24
2013-3-6,63,52,42,47,42,37,87,69,45,30.47,30.26,10,2,19,0.20
2013-3-7,66,50,38,45,40,35,94,71,35,30.40,30.23,4,1,11,0.38
2013-3-8,68,53,42,49,43,37,96,70,40,30.49,30.22,4,1,13,0.04
2013-3-9,73,55,40,51,40,36,90,62,28,30.71,30.48,5,1,13,0.00
2013-3-10,80,59,42,52,39,29,88,54,16,30.74,30.63,5,1,9,0.00
2013-3-11,83,60,43,51,41,35,77,54,20,30.66,30.50,7,1,11,0.00
2013-3-12,68,51,46,53,45,40,93,80,54,30.55,30.51,2,0,4,0.00
2013-3-17,78,66,48,49,43,37,77,47,25,30.55,30.43,6,1,10,0.00
2013-3-18,75,58,43,50,44,37,84,63,39,30.53,30.42,4,0,7,0.00
2013-3-19,80,59,47,52,44,39,91,62,30,30.54,30.45,5,1,11,0.05
2013-3-20,79,61,52,58,53,49,96,77,42,30.53,30.46,5,1,11,0.03
2013-3-21,73,57,42,49,43,37,83,62,33,30.54,30.40,7,1,14,0.00
2013-3-22,76,58,42,41,32,17,86,46,11,30.51,30.40,10,1,14,0.00
2013-3-23,77,59,45,46,32,21,71,41,13,30.53,30.43,6,1,10,0.00
2013-3-24,79,60,43,51,44,36,84,60,35,30.49,30.36,7,1,11,0.00
2013-3-25,69,55,44,50,44,40,85,70,46,30.42,30.35,7,1,10,0.00
2013-3-26,77,58,45,51,46,40,85,66,38,30.42,30.32,7,1,11,0.00
2013-3-27,74,60,48,55,50,44,87,71,48,30.41,30.34,7,1,11,0.00
2013-3-28,81,65,56,57,54,52,92,71,40,30.48,30.40,4,1,10,0.00
2013-3-29,88,67,53,57,54,49,90,66,28,30.48,30.38,6,1,11,0.00
2013-3-30,80,64,55,56,52,46,90,68,32,30.47,30.35,8,1,14,0.00
2013-3-31,74,62,54,57,52,49,95,73,44,30.46,30.38,9,2,21,0.02
2013-4-1,77,62,54,60,53,49,97,75,40,30.55,30.44,7,1,14,0.14
2013-4-2,78,62,48,56,51,45,92,71,41,30.59,30.48,5,1,10,0.00
2013-4-3,87,64,49,58,52,46,94,70,32,30.55,30.36,5,1,11,0.00
2013-4-4,74,62,52,58,54,50,94,76,53,30.52,30.40,8,2,13,0.12
2013-4-5,77,62,52,55,51,46,84,68,41,30.59,30.51,7,1,14,0.00
2013-4-6,76,60,51,56,51,47,89,73,44,30.60,30.53,8,1,15,0.00
2013-4-7,78,61,50,56,50,45,89,68,38,30.58,30.29,4,1,11,0.03
2013-4-8,71,58,48,51,39,33,88,54,26,30.42,30.24,10,3,19,0.00
2013-4-9,81,66,52,42,38,32,65,39,18,30.49,30.41,8,2,14,0.00
2013-4-10,94,74,55,52,46,39,81,40,21,30.57,30.44,6,1,14,0.00
2013-4-11,80,64,51,53,49,44,89,62,30,30.49,30.25,5,1,11,0.00
2013-4-12,86,63,44,54,48,41,88,63,29,30.32,30.22,4,1,10,0.00
2013-4-13,81,61,46,54,46,40,87,60,33,30.32,30.24,6,1,13,0.00
2013-4-14,79,60,43,50,42,36,85,58,26,30.34,30.26,5,1,13,0.00
2013-4-15,64,55,45,48,40,34,85,60,37,30.37,30.27,8,2,17,0.00
2013-4-16,74,57,39,45,34,27,79,47,18,30.54,30.37,5,1,12,0.00
2013-4-17,76,62,51,38,32,24,54,35,15,30.66,30.54,8,2,16,0.00
2013-4-18,86,65,45,48,38,32,67,43,16,30.67,30.57,7,1,12,0.00
2013-4-19,90,69,50,55,46,39,73,47,22,30.64,30.47,6,1,14,0.00
2013-4-20,88,68,51,53,47,41,79,52,20,30.51,30.37,8,1,14,0.00
2013-4-21,95,72,50,57,44,32,84,45,12,30.44,30.32,4,1,11,0.00
2013-4-22,97,75,58,57,45,30,69,40,10,30.36,30.23,6,1,11,0.00
2013-4-23,92,70,54,52,40,24,79,42,10,30.34,30.25,6,1,13,0.00
2013-4-24,79,63,47,55,50,41,84,64,39,30.36,30.24,8,1,14,0.00
2013-4-25,77,63,50,55,51,47,91,68,44,30.54,30.34,7,1,11,0.00
2013-4-26,78,63,53,55,51,47,85,66,44,30.63,30.53,6,1,11,0.00
2013-4-27,85,65,52,58,52,47,88,66,40,30.63,30.49,7,1,10,0.00
2013-4-28,93,69,51,59,53,48,92,61,27,30.50,30.28,5,1,11,0.00
2013-4-29,98,77,57,59,52,44,82,49,19,30.30,30.16,5,1,11,0.00
2013-4-30,91,70,52,57,49,40,86,53,18,30.26,30.18,8,1,15,0.04
2013-5-1,94,75,57,43,32,20,54,25,10,30.50,30.25,6,1,9,0.00
2013-5-2,100,77,57,53,39,28,56,32,10,30.55,30.46,7,1,11,0.00
2013-5-3,98,78,58,51,38,29,48,28,10,30.50,30.20,6,1,12,0.00
2013-5-4,99,75,57,56,45,35,66,39,13,30.20,29.94,7,1,11,0.00
2013-5-5,75,63,57,51,49,45,71,61,42,30.21,29.99,11,4,25,0.00
2013-5-6,78,65,53,57,50,47,83,60,40,30.36,30.21,7,1,14,0.00
2013-5-7,78,66,56,57,52,46,84,61,43,30.46,30.35,6,1,11,0.00
2013-5-8,76,63,53,56,51,46,84,67,47,30.56,30.44,7,1,11,0.00
2013-5-9,76,63,54,55,51,48,83,67,46,30.60,30.50,6,1,11,0.00
2013-5-10,78,65,54,58,53,49,88,69,48,30.60,30.52,6,1,11,0.00
2013-5-11,95,71,54,63,56,51,92,65,31,30.57,30.44,6,1,10,0.00
2013-5-12,89,71,53,64,56,48,87,63,38,30.55,30.44,7,1,11,0.00
2013-5-13,86,69,52,62,54,47,85,63,42,30.51,30.37,6,1,11,0.00
2013-5-14,86,68,52,59,51,44,89,59,30,30.45,30.35,5,1,11,0.00
2013-5-15,80,64,48,52,46,42,82,56,29,30.48,30.43,5,1,11,0.00
2013-5-16,79,64,53,57,51,46,79,64,41,30.46,30.38,5,1,13,0.00
2013-5-17,80,63,50,52,46,41,83,57,30,30.51,30.41,8,1,12,0.00
2013-5-18,84,65,46,55,48,39,83,57,27,30.55,30.49,5,1,11,0.00
2013-5-19,91,70,51,56,48,40,80,52,18,30.53,30.37,6,1,16,0.00
2013-5-20,97,75,54,58,44,30,79,43,10,30.41,30.32,7,1,14,0.00
2013-5-21,81,64,51,55,45,31,80,54,17,30.41,30.34,6,1,11,0.00
2013-5-22,74,59,49,40,35,22,73,44,16,30.43,30.34,6,2,11,0.00
2013-5-23,77,60,44,49,42,38,81,54,33,30.43,30.35,4,1,11,0.00
2013-5-24,80,62,44,51,42,36,76,52,29,30.42,30.35,8,1,16,0.00
2013-5-25,77,62,45,48,44,39,81,56,29,30.49,30.40,8,1,14,0.00
2013-5-26,80,66,52,56,51,45,80,61,36,30.56,30.47,8,1,15,0.00
2013-5-27,75,62,51,58,52,47,85,70,46,30.56,30.41,7,1,11,0.00
2013-5-28,80,67,57,59,55,48,87,68,39,30.42,30.32,6,1,11,0.00
2013-5-29,81,66,55,58,50,43,78,59,34,30.39,30.31,7,1,16,0.00
2013-5-30,83,66,48,53,46,40,80,53,28,30.41,30.35,8,1,13,0.00
2013-5-31,96,72,50,57,49,41,78,49,20,30.43,30.31,7,1,12,0.00
2013-6-1,100,76,54,60,53,46,83,51,18,30.35,30.18,7,1,11,0.00
2013-6-2,88,70,55,60,55,49,87,62,38,30.21,30.08,6,1,11,0.00
2013-6-3,87,68,51,60,54,47,87,63,37,30.27,30.13,6,1,11,0.00
2013-6-4,81,68,56,59,55,51,85,66,46,30.38,30.26,6,1,12,0.00
2013-6-5,79,67,58,58,55,53,84,67,46,30.40,30.32,5,1,11,0.00
2013-6-6,86,69,59,61,56,52,86,65,42,30.37,30.25,7,1,10,0.00
2013-6-7,99,77,59,65,59,54,86,59,32,30.31,30.13,6,1,11,0.00
2013-6-8,99,78,60,67,60,51,80,56,34,30.21,30.10,5,1,11,0.00
2013-6-9,88,72,61,63,58,52,88,65,41,30.28,30.20,4,1,12,0.00
2013-6-10,83,68,56,56,53,49,81,61,39,30.35,30.25,8,2,14,0.00
2013-6-11,81,68,58,60,56,53,82,68,48,30.39,30.31,8,1,11,0.00
2013-6-12,89,70,52,58,48,36,81,50,16,30.44,30.33,7,1,12,0.00
2013-6-13,88,69,49,54,46,37,79,49,18,30.50,30.41,6,1,12,0.00
2013-6-14,94,73,54,58,49,36,81,49,14,30.41,30.23,8,1,12,0.00
2013-6-15,82,66,52,58,52,43,81,62,43,30.43,30.25,8,1,12,0.00
2013-6-16,87,69,50,60,52,46,86,59,31,30.52,30.42,7,1,14,0.00
2013-6-17,84,68,52,59,53,47,84,63,40,30.52,30.45,9,1,14,0.00
2013-6-18,76,64,52,57,50,46,85,61,35,30.47,30.42,8,2,14,0.00
2013-6-19,82,67,50,54,47,43,78,52,30,30.47,30.41,9,2,17,0.00
2013-6-20,86,63,50,54,46,39,79,56,21,30.44,30.36,4,1,9,0.00
2013-6-21,89,70,51,57,50,44,78,54,27,30.40,30.33,8,1,14,0.00
2013-6-22,94,74,52,59,51,40,80,50,19,30.36,30.26,5,1,12,0.00
2013-6-23,81,68,57,62,58,52,85,72,50,30.31,30.22,5,1,11,0.00
2013-6-24,74,67,61,64,61,58,94,83,69,30.32,30.20,4,1,8,0.02
2013-6-25,90,72,63,67,62,57,86,70,48,30.39,30.30,7,2,12,0.00
2013-6-26,91,77,67,68,64,60,90,68,46,30.47,30.38,8,1,15,0.00
2013-6-27,98,78,61,68,62,57,91,60,28,30.49,30.42,6,1,11,0.00
2013-6-28,104,83,62,69,62,52,79,52,28,30.46,30.31,8,1,13,0.00
2013-6-29,105,85,65,65,59,51,68,46,22,30.35,30.21,6,1,13,0.00
2013-6-30,99,80,62,67,61,52,79,55,32,30.27,30.19,4,1,9,0.00
2013-7-1,102,80,61,67,61,54,84,56,31,30.26,30.22,6,1,9,0.00
2013-7-2,104,81,66,70,64,59,85,60,30,30.34,30.23,6,1,11,0.00
2013-7-3,102,79,64,69,64,60,91,63,33,30.34,30.17,4,1,9,0.00
2013-7-4,103,83,68,70,64,57,80,56,32,30.20,30.10,6,1,8,0.00
2013-7-5,86,72,59,60,57,53,81,60,39,30.22,30.13,5,1,9,0.00
2013-7-6,88,70,54,61,56,50,86,65,38,30.22,30.14,6,1,11,0.00
2013-7-7,88,70,54,62,56,49,85,65,40,30.28,30.18,6,1,12,0.00
2013-7-8,91,72,58,62,58,51,84,64,37,30.39,30.27,6,1,10,0.00
2013-7-9,97,76,57,66,59,50,88,59,30,30.44,30.32,5,1,11,0.00
2013-7-10,89,72,58,63,59,55,90,67,41,30.40,30.31,6,1,10,0.00
2013-7-11,85,70,59,61,57,54,85,67,43,30.37,30.29,6,1,13,0.00
2013-7-12,86,70,56,62,56,52,86,65,41,30.35,30.29,6,1,11,0.00
2013-7-13,91,72,52,63,54,41,81,56,32,30.39,30.30,6,1,11,0.00
2013-7-14,85,69,54,62,56,49,88,67,43,30.42,30.31,6,1,11,0.00
2013-7-15,81,68,59,59,56,53,87,67,46,30.35,30.24,6,1,11,0.00
2013-7-16,81,68,58,59,55,52,82,64,44,30.45,30.28,6,1,11,0.00
2013-7-17,82,69,59,60,56,54,87,67,46,30.52,30.45,7,1,11,0.00
2013-7-18,91,72,57,64,57,52,87,65,35,30.50,30.36,6,1,11,0.00
2013-7-19,92,72,57,64,58,54,90,67,39,30.39,30.24,8,1,13,0.00
2013-7-20,93,72,59,65,59,55,89,67,38,30.29,30.14,5,1,10,0.00
2013-7-21,90,72,58,64,59,53,88,66,41,30.30,30.18,5,1,11,0.00
2013-7-22,87,71,60,64,60,57,91,72,45,30.37,30.29,4,1,8,0.00
2013-7-23,90,74,63,65,61,59,88,67,40,30.42,30.36,6,1,10,0.00
2013-7-24,93,76,60,65,60,53,88,61,37,30.41,30.31,6,1,9,0.00
2013-7-25,90,73,58,66,60,54,92,66,40,30.46,30.36,6,1,10,0.00
2013-7-26,88,72,59,64,60,56,90,69,43,30.52,30.42,5,1,9,0.00
2013-7-27,88,72,61,64,60,57,88,69,44,30.47,30.27,5,1,10,0.00
2013-7-28,87,71,60,63,58,55,87,68,43,30.31,30.22,4,1,10,0.00
2013-7-29,89,69,55,61,56,50,88,65,34,30.44,30.26,6,1,12,0.00
2013-7-30,86,69,57,61,56,52,85,66,41,30.51,30.43,7,1,11,0.00
2013-7-31,87,70,58,62,56,51,86,63,40,30.51,30.44,6,1,11,0.00
2013-8-1,82,68,52,58,53,47,82,61,40,30.51,30.40,5,1,11,0.00
2013-8-2,87,69,52,61,54,45,83,63,40,30.41,30.33,5,1,11,0.00
2013-8-3,88,69,56,61,56,51,87,66,37,30.41,30.31,6,1,9,0.00
2013-8-4,83,68,59,61,57,54,87,69,46,30.44,30.37,8,1,15,0.00
2013-8-5,82,68,59,61,57,54,84,69,47,30.44,30.37,8,1,12,0.00
2013-8-6,80,68,59,60,57,53,85,69,47,30.47,30.40,7,1,11,0.00
2013-8-7,83,70,61,59,56,54,83,64,41,30.52,30.44,7,1,13,0.00
2013-8-8,83,69,60,61,57,54,81,67,47,30.47,30.35,7,1,14,0.00
2013-8-9,81,69,59,61,56,52,84,67,46,30.43,30.35,8,1,12,0.00
2013-8-10,84,69,60,62,58,56,85,71,47,30.48,30.42,7,1,11,0.00
2013-8-11,82,70,61,62,59,56,88,70,48,30.46,30.37,6,1,11,0.00
2013-8-12,89,72,58,64,59,54,91,68,40,30.42,30.36,7,1,11,0.00
2013-8-13,95,72,56,63,57,52,91,65,26,30.42,30.33,6,1,11,0.00
2013-8-14,89,72,54,64,58,48,85,65,38,30.42,30.35,5,0,10,0.00
2013-8-15,90,75,60,68,64,57,90,71,46,30.40,30.34,7,1,11,0.00
2013-8-16,92,75,63,70,64,59,95,72,43,30.42,30.36,7,1,11,0.00
2013-8-17,88,70,58,64,58,47,87,68,45,30.43,30.31,5,0,8,0.00
2013-8-18,100,77,57,67,60,51,89,60,31,30.32,30.18,6,1,10,0.00
2013-8-19,97,79,66,69,62,54,83,59,36,30.33,30.22,6,1,10,0.00
2013-8-20,91,75,63,65,62,58,90,66,40,30.32,30.22,4,1,10,0.00
2013-8-21,87,71,59,63,58,54,87,67,44,30.37,30.27,8,1,11,0.00
2013-8-22,83,69,60,61,58,55,84,69,47,30.40,30.31,7,1,11,0.00
2013-8-23,82,69,59,61,58,54,84,68,47,30.37,30.26,5,1,11,0.00
2013-8-24,88,71,54,63,58,49,86,66,41,30.34,30.28,7,1,13,0.00
2013-8-25,91,74,63,67,62,57,85,68,43,30.38,30.30,7,1,13,0.00
2013-8-26,85,72,60,63,58,50,83,63,38,30.44,30.33,7,1,11,0.00
2013-8-27,90,72,56,64,57,48,82,61,40,30.35,30.24,7,1,11,0.00
2013-8-28,89,72,57,67,61,52,89,69,46,30.39,30.30,6,1,11,0.00
2013-8-29,89,74,65,67,63,60,89,71,45,30.49,30.38,6,1,11,0.00
2013-8-30,97,77,61,69,62,57,96,66,34,30.48,30.35,8,1,11,0.00
2013-8-31,90,74,58,65,59,50,85,63,41,30.42,30.33,5,1,9,0.00
2013-9-1,90,74,61,64,61,57,88,68,37,30.39,30.30,4,1,9,0.00
2013-9-2,90,74,66,67,64,61,89,73,47,30.40,30.31,5,1,11,0.00
2013-9-3,88,73,58,64,57,53,88,61,34,30.44,30.36,10,1,14,0.00
2013-9-4,88,72,58,63,56,52,84,61,35,30.48,30.37,8,1,16,0.00
2013-9-5,87,71,56,62,56,51,90,62,35,30.45,30.38,7,1,14,0.00
2013-9-6,100,76,55,61,53,48,81,51,22,30.44,30.24,5,1,12,0.00
2013-9-7,105,82,65,62,54,47,68,42,18,30.30,30.21,7,1,11,0.00
2013-9-8,99,76,59,66,59,50,84,58,32,30.30,30.18,4,1,8,0.00
2013-9-9,99,77,60,67,61,53,86,62,32,30.25,30.13,6,1,9,0.00
2013-9-10,92,72,60,64,59,51,92,65,38,30.32,30.17,4,0,8,0.00
2013-9-11,86,70,56,62,58,52,87,68,43,30.42,30.32,6,1,14,0.00
2013-9-12,84,71,64,64,60,58,85,71,49,30.41,30.32,7,1,11,0.00
2013-9-13,84,70,61,63,60,57,87,72,49,30.35,30.22,7,1,11,0.00
2013-9-14,81,68,58,62,58,53,86,72,49,30.27,30.19,7,1,11,0.00
2013-9-15,87,70,56,63,58,51,87,68,43,30.31,30.24,5,1,11,0.00
2013-9-16,91,72,59,65,58,51,87,65,33,30.34,30.22,5,1,12,0.00
2013-9-17,83,67,55,60,53,50,91,63,35,30.33,30.28,7,1,16,0.00
2013-9-18,91,70,55,60,51,41,84,57,18,30.35,30.24,7,1,11,0.00
2013-9-19,97,73,53,58,50,41,76,49,18,30.29,30.17,4,0,9,0.00
2013-9-20,85,68,52,62,54,40,76,61,44,30.31,30.22,5,1,9,0.00
2013-9-21,75,64,54,65,57,51,92,79,55,30.35,30.25,6,1,14,0.23
2013-9-22,82,65,51,63,53,49,95,69,39,30.46,30.34,5,1,11,0.01
2013-9-23,90,70,53,60,55,49,87,62,32,30.46,30.35,4,1,10,0.00
2013-9-24,83,68,56,61,53,47,86,62,35,30.44,30.36,8,1,12,0.00
2013-9-25,76,64,55,49,46,43,72,54,34,30.39,30.27,4,1,11,0.00
2013-9-26,82,66,50,45,41,35,73,44,20,30.43,30.28,4,1,12,0.00
2013-9-27,87,67,52,49,41,35,62,42,17,30.54,30.42,5,0,11,0.00
2013-9-28,93,70,52,56,44,32,84,45,12,30.54,30.42,7,0,11,0.00
2013-9-29,86,68,55,61,56,48,85,67,42,30.55,30.47,7,1,12,0.00
2013-9-30,84,68,57,64,59,52,92,73,48,30.52,30.40,6,1,10,0.00
2013-10-1,83,65,50,54,50,44,85,62,35,30.46,30.36,5,1,11,0.00
2013-10-2,87,66,52,58,49,41,81,58,30,30.46,30.36,6,0,11,0.00
2013-10-3,80,65,49,47,40,34,74,44,21,30.51,30.38,4,1,11,0.00
2013-10-4,88,70,52,37,34,31,50,28,14,30.54,30.41,6,1,15,0.00
2013-10-5,94,72,55,39,33,28,40,26,10,30.63,30.52,4,0,8,0.00
2013-10-6,96,73,54,44,36,30,43,28,14,30.55,30.43,4,0,8,0.00
2013-10-7,84,65,56,42,34,30,52,33,19,30.44,30.34,2,0,6,0.00
2013-10-8,85,65,48,52,44,31,78,49,27,30.34,30.16,6,1,9,0.00
2013-10-9,78,59,47,51,45,41,87,64,32,30.19,30.07,7,0,12,0.00
2013-10-10,84,63,47,52,46,40,82,58,27,30.45,30.19,6,0,11,0.00
2013-10-11,78,59,46,56,49,42,87,72,45,30.52,30.41,6,0,9,0.00
2013-10-12,82,61,47,57,48,43,89,66,37,30.45,30.34,4,0,8,0.00
2013-10-13,82,63,48,55,46,41,89,59,29,30.51,30.37,4,0,11,0.00
2013-10-14,87,66,50,51,41,38,68,44,20,30.55,30.42,3,0,7,0.00
2013-10-15,88,68,52,43,38,35,55,36,15,30.48,30.37,4,0,11,0.00
2013-10-16,93,70,53,45,37,34,53,33,15,30.52,30.43,4,0,7,0.00
2013-10-17,91,70,55,45,37,32,48,33,13,30.51,30.39,5,0,10,0.00
2013-10-18,90,67,49,55,44,32,65,45,21,30.49,30.40,4,0,9,0.00
2013-10-19,93,68,50,57,47,40,72,51,19,30.51,30.41,3,0,6,0.00
2013-10-20,89,64,50,58,50,41,95,64,35,30.47,30.34,4,0,8,0.00
2013-10-21,84,62,49,58,51,43,94,72,39,30.45,30.34,4,0,8,0.00
2013-10-22,85,62,49,59,52,46,97,75,39,30.46,30.35,3,0,6,0.00
2013-10-23,80,59,50,58,52,49,98,82,46,30.42,30.33,3,0,6,0.00
2013-10-24,72,56,49,54,50,46,92,81,51,30.56,30.42,4,0,7,0.00
2013-10-25,82,61,48,55,50,45,92,71,39,30.61,30.52,6,0,8,0.00
2013-10-26,89,65,48,58,48,42,80,60,26,30.59,30.45,3,0,6,0.00
2013-10-27,76,58,48,55,48,41,94,72,39,30.48,30.14,9,1,19,0.00
2013-10-28,68,58,52,49,47,45,82,66,44,30.30,30.13,6,1,17,0.00
2013-10-29,70,57,48,51,47,43,81,70,49,30.50,30.30,4,0,8,0.00
2013-10-30,77,58,43,56,46,40,91,67,37,30.59,30.50,4,0,7,0.00
2013-10-31,83,62,46,54,45,41,84,58,28,30.62,30.50,4,0,8,0.00
2013-11-1,88,66,50,52,45,41,74,52,23,30.58,30.44,2,0,6,0.00
2013-11-2,82,62,50,56,47,38,81,59,38,30.47,30.36,4,0,8,0.00
2013-11-3,72,56,45,47,38,30,83,55,21,30.49,30.36,4,0,12,0.00
2013-11-4,75,57,42,47,35,30,77,47,20,30.50,30.35,5,1,11,0.00
2013-11-5,82,63,49,37,34,31,50,37,18,30.67,30.51,4,0,8,0.00
2013-11-6,84,64,48,49,39,35,64,43,19,30.69,30.59,3,0,8,0.00
2013-11-7,86,63,50,48,40,35,72,46,18,30.61,30.50,5,0,8,0.00
2013-11-8,85,60,46,56,48,41,88,66,32,30.53,30.40,4,0,8,0.00
2013-11-9,87,61,46,55,46,36,88,61,29,30.48,30.39,4,0,8,0.00
2013-11-10,77,57,45,54,46,38,85,70,42,30.56,30.47,4,0,8,0.00
2013-11-11,76,60,49,55,50,46,88,71,46,30.60,30.51,2,0,5,0.00
2013-11-12,83,64,54,54,49,43,80,61,30,30.70,30.59,4,0,8,0.00
2013-11-13,87,63,50,57,49,43,85,63,26,30.70,30.55,3,0,5,0.00
2013-11-14,78,57,47,58,51,45,97,83,47,30.57,30.34,4,0,7,0.00
2013-11-15,76,56,43,52,43,35,92,67,29,30.34,30.17,4,0,8,0.00
2013-11-16,74,54,41,50,43,35,89,68,37,30.38,30.22,5,0,9,0.00
2013-11-17,75,56,45,54,46,42,91,74,39,30.53,30.37,3,0,7,0.00
2013-11-18,70,53,44,51,45,41,89,76,49,30.58,30.52,4,0,8,0.00
2013-11-19,71,57,48,56,51,44,98,81,54,30.55,30.39,3,0,6,0.00
2013-11-20,71,57,51,66,55,50,99,93,71,30.40,30.29,2,0,5,0.00
2013-11-21,70,56,49,51,41,28,98,62,26,30.44,30.34,4,0,10,0.00
2013-11-22,79,56,43,34,28,16,66,38,12,30.48,30.34,4,0,8,0.00
2013-11-23,78,56,42,43,37,33,79,55,22,30.55,30.40,2,0,7,0.00
2013-11-24,77,56,41,51,41,34,81,61,30,30.69,30.54,2,0,5,0.00
2013-11-25,77,56,44,49,42,37,81,62,34,30.76,30.69,3,0,6,0.00
2013-11-26,73,56,45,49,43,37,77,64,41,30.70,30.47,2,0,4,0.00
2013-11-27,74,57,45,52,44,39,82,66,42,30.47,30.27,2,0,6,0.00
2013-11-28,79,58,48,51,44,41,78,62,34,30.53,30.31,3,0,5,0.00
2013-11-29,84,60,48,50,42,36,76,55,25,30.67,30.52,3,0,5,0.00
2013-11-30,78,57,44,52,42,36,74,59,34,30.70,30.62,2,0,6,0.00
2013-12-1,81,60,45,52,44,38,81,60,30,30.78,30.66,2,0,5,0.00
2013-12-2,77,56,44,56,47,38,91,72,45,30.67,30.43,4,0,7,0.00
2013-12-3,61,51,41,51,40,29,92,67,41,30.43,30.29,4,1,11,0.00
2013-12-4,64,46,34,33,26,20,70,49,20,30.52,30.38,6,0,9,0.00
2013-12-5,62,42,31,27,21,17,70,45,19,30.61,30.52,3,0,7,0.00
2013-12-6,64,45,31,47,35,26,92,70,35,30.63,30.37,4,1,11,0.00
2013-12-7,57,45,34,48,32,26,94,63,33,30.68,30.36,5,1,14,0.00
2013-12-8,55,40,31,30,25,20,85,59,31,30.76,30.66,4,0,11,0.00
2013-12-9,62,42,31,24,20,14,62,44,21,30.85,30.75,3,0,9,0.00
2013-12-10,62,43,30,32,27,22,73,55,29,30.85,30.64,4,0,8,0.00
2013-12-11,67,47,33,34,29,24,71,53,26,30.68,30.61,3,0,7,0.00
2013-12-12,70,49,34,36,31,26,72,54,22,30.70,30.60,3,0,6,0.00
2013-12-13,70,49,36,46,34,29,76,58,29,30.78,30.68,3,0,7,0.00
2013-12-14,71,52,37,46,36,30,79,58,29,30.83,30.74,4,0,7,0.00
2013-12-15,73,52,38,44,36,30,74,56,30,30.81,30.67,2,0,6,0.00
2013-12-16,81,56,42,41,35,30,63,49,23,30.68,30.55,2,0,7,0.00
2013-12-17,75,56,43,44,38,31,65,52,31,30.61,30.47,2,0,5,0.00
2013-12-18,75,54,42,47,42,35,89,66,34,30.48,30.24,2,0,5,0.00
2013-12-19,66,51,42,44,36,23,92,61,32,30.37,30.17,3,0,8,0.00
2013-12-20,71,51,37,28,18,7,56,33,10,30.46,30.37,4,0,7,0.00
2013-12-21,72,53,39,50,39,25,81,62,43,30.52,30.41,4,0,9,0.00
2013-12-22,77,57,44,49,39,36,82,56,24,30.73,30.52,3,0,8,0.00
2013-12-23,76,55,42,48,41,35,80,61,34,30.82,30.72,2,0,6,0.00
2013-12-24,79,58,42,47,39,33,78,53,28,30.78,30.64,3,0,8,0.00
2013-12-25,76,55,40,45,38,31,73,54,30,30.73,30.63,3,0,6,0.00
2013-12-26,80,57,41,46,38,32,74,53,28,30.70,30.60,2,0,5,0.00
2013-12-27,71,52,38,45,37,29,74,58,38,30.67,30.55,2,0,4,0.00
2013-12-28,78,54,39,42,31,28,72,46,17,30.59,30.47,3,0,8,0.00
2013-12-29,79,59,47,29,25,16,46,30,10,30.62,30.53,4,0,8,0.00
2013-12-30,80,55,39,39,31,25,58,43,19,30.70,30.61,2,0,4,0.00
2013-12-31,73,51,37,47,34,24,68,55,33,30.71,30.58,4,0,8,0.00
2014-1-1,76,54,37,46,34,26,65,50,24,30.65,30.56,2,0,5,0.00
2014-1-2,78,55,40,44,35,30,69,49,24,30.61,30.49,3,0,8,0.00